Hourly Weather Holykove

Today, 12 April, Monday

Time Temperature Precipitation Wind Pressure Humidity
00:00 +7°C° 0 mm 3 mps 752 mmHg 60%
01:00 +7°C° 0 mm 3 mps 752 mmHg 62%
02:00 +7°C° 0 mm 3 mps 752 mmHg 64%
03:00 +7°C° 0 mm 3 mps 751 mmHg 66%
04:00 +5°C° 0 mm 3 mps 751 mmHg 67%
05:00 +5°C° 0 mm 3 mps 751 mmHg 68%
06:00 +5°C° 0.3 mm 3 mps 750 mmHg 73%
07:00 +5°C° 0.3 mm 3 mps 750 mmHg 77%
08:00 +5°C° 0.3 mm 3 mps 750 mmHg 82%
09:00 +7°C° 0.2 mm 3 mps 750 mmHg 80%
10:00 +7°C° 0.2 mm 3 mps 750 mmHg 79%
11:00 +8°C° 0.2 mm 3 mps 750 mmHg 78%
12:00 +8°C° 0 mm 3 mps 750 mmHg 77%
13:00 +9°C° 0 mm 2 mps 750 mmHg 75%
14:00 +9°C° 0 mm 2 mps 749 mmHg 74%
15:00 +9°C° 0 mm 2 mps 749 mmHg 75%
16:00 +11°C° 0 mm 1 mps 749 mmHg 75%
17:00 +11°C° 0 mm 1 mps 749 mmHg 75%
18:00 +11°C° 0 mm 1 mps 749 mmHg 77%
19:00 +10°C° 0 mm 1 mps 749 mmHg 79%
20:00 +10°C° 0 mm 1 mps 750 mmHg 81%
21:00 +10°C° 0 mm 1 mps 749 mmHg 82%
22:00 +10°C° 0 mm 1 mps 749 mmHg 83%
23:00 +10°C° 0 mm 1 mps 749 mmHg 84%

Tomorrow, 13 April, Tuesday

Time Temperature Precipitation Wind Pressure Humidity
00:00 +10°C° 0 mm 1 mps 749 mmHg 84%
01:00 +10°C° 0 mm 1 mps 749 mmHg 85%
02:00 +9°C° 0 mm 0 mps 749 mmHg 86%
03:00 +10°C° 0 mm 1 mps 749 mmHg 87%
04:00 +10°C° 0 mm 1 mps 749 mmHg 88%
05:00 +10°C° 0 mm 1 mps 749 mmHg 89%
06:00 +10°C° 0 mm 1 mps 749 mmHg 89%
07:00 +10°C° 0 mm 1 mps 749 mmHg 88%
08:00 +10°C° 0 mm 1 mps 749 mmHg 87%
09:00 +10°C° 0 mm 2 mps 749 mmHg 83%
10:00 +12°C° 0 mm 2 mps 749 mmHg 78%
11:00 +12°C° 0 mm 3 mps 749 mmHg 74%
12:00 +12°C° 0 mm 3 mps 749 mmHg 73%
13:00 +12°C° 0 mm 3 mps 749 mmHg 72%
14:00 +12°C° 0 mm 3 mps 748 mmHg 72%
15:00 +12°C° 0 mm 3 mps 748 mmHg 73%
16:00 +13°C° 0 mm 2 mps 748 mmHg 74%
17:00 +13°C° 0 mm 2 mps 748 mmHg 75%
18:00 +12°C° 0 mm 2 mps 748 mmHg 78%
19:00 +12°C° 0 mm 2 mps 748 mmHg 81%
20:00 +10°C° 0 mm 2 mps 748 mmHg 84%
21:00 +10°C° 0 mm 2 mps 748 mmHg 85%
22:00 +10°C° 0 mm 2 mps 748 mmHg 86%
23:00 +9°C° 0 mm 2 mps 748 mmHg 87%

Day after tomorrow, 14 April, Wednesday

Time Temperature Precipitation Wind Pressure Humidity
00:00 +9°C° 0 mm 2 mps 747 mmHg 88%
01:00 +8°C° 0 mm 2 mps 747 mmHg 89%
02:00 +8°C° 0 mm 2 mps 747 mmHg 90%
03:00 +7°C° 0 mm 2 mps 747 mmHg 91%
04:00 +7°C° 0 mm 2 mps 747 mmHg 92%
05:00 +7°C° 0 mm 2 mps 747 mmHg 92%
06:00 +8°C° 0 mm 2 mps 747 mmHg 88%
07:00 +9°C° 0 mm 3 mps 747 mmHg 84%
08:00 +9°C° 0 mm 3 mps 747 mmHg 80%
09:00 +11°C° 0 mm 3 mps 747 mmHg 73%
10:00 +12°C° 0 mm 3 mps 747 mmHg 66%
11:00 +13°C° 0 mm 4 mps 746 mmHg 60%
12:00 +14°C° 0.1 mm 4 mps 746 mmHg 58%
13:00 +14°C° 0.1 mm 4 mps 746 mmHg 56%
14:00 +14°C° 0.1 mm 4 mps 746 mmHg 54%
15:00 +14°C° 0.1 mm 3 mps 745 mmHg 54%
16:00 +14°C° 0.1 mm 3 mps 745 mmHg 54%
17:00 +15°C° 0.1 mm 2 mps 745 mmHg 55%
18:00 +14°C° 0.1 mm 2 mps 745 mmHg 59%
19:00 +14°C° 0.1 mm 1 mps 745 mmHg 63%
20:00 +13°C° 0.1 mm 1 mps 745 mmHg 67%
21:00 +12°C° 0 mm 1 mps 745 mmHg 68%
22:00 +12°C° 0 mm 1 mps 744 mmHg 70%
23:00 +12°C° 0 mm 2 mps 744 mmHg 72%

15 April, Thursday

Time Temperature Precipitation Wind Pressure Humidity
00:00 +10°C° 0 mm 2 mps 744 mmHg 74%
01:00 +9°C° 0 mm 2 mps 744 mmHg 76%
02:00 +9°C° 0 mm 2 mps 744 mmHg 78%
03:00 +9°C° 0 mm 3 mps 744 mmHg 79%
04:00 +8°C° 0 mm 3 mps 744 mmHg 80%
05:00 +8°C° 0 mm 3 mps 744 mmHg 81%
06:00 +8°C° 0 mm 3 mps 744 mmHg 80%
07:00 +9°C° 0 mm 3 mps 744 mmHg 78%
08:00 +9°C° 0 mm 3 mps 744 mmHg 77%
09:00 +9°C° 0 mm 3 mps 744 mmHg 78%
10:00 +10°C° 0 mm 3 mps 744 mmHg 79%
11:00 +10°C° 0 mm 3 mps 744 mmHg 80%
12:00 +12°C° 0.1 mm 2 mps 744 mmHg 75%
13:00 +13°C° 0.1 mm 2 mps 743 mmHg 71%
14:00 +14°C° 0.1 mm 2 mps 743 mmHg 66%
15:00 +13°C° 0.3 mm 2 mps 743 mmHg 72%
16:00 +12°C° 0.3 mm 2 mps 743 mmHg 79%
17:00 +10°C° 0.3 mm 2 mps 743 mmHg 85%
18:00 +10°C° 0.2 mm 2 mps 743 mmHg 87%
19:00 +11°C° 0.2 mm 1 mps 743 mmHg 89%
20:00 +10°C° 0.2 mm 1 mps 743 mmHg 91%
21:00 +10°C° 0.4 mm 1 mps 743 mmHg 92%
22:00 +10°C° 0.4 mm 1 mps 742 mmHg 92%
23:00 +10°C° 0.4 mm 1 mps 742 mmHg 93%

16 April, Friday

Time Temperature Precipitation Wind Pressure Humidity
00:00 +10°C° 0.7 mm 1 mps 742 mmHg 93%
01:00 +9°C° 0.7 mm 1 mps 742 mmHg 93%
02:00 +9°C° 0.7 mm 1 mps 741 mmHg 94%
03:00 +9°C° 0.8 mm 1 mps 741 mmHg 94%
04:00 +9°C° 0.8 mm 1 mps 741 mmHg 94%
05:00 +9°C° 0.8 mm 1 mps 741 mmHg 94%
06:00 +8°C° 0.6 mm 2 mps 741 mmHg 94%
07:00 +8°C° 0.6 mm 3 mps 741 mmHg 94%
08:00 +7°C° 0.6 mm 3 mps 741 mmHg 94%
09:00 +6°C° 0.3 mm 4 mps 741 mmHg 93%
10:00 +6°C° 0.3 mm 4 mps 741 mmHg 92%
11:00 +6°C° 0.3 mm 4 mps 742 mmHg 91%
12:00 +6°C° 0.5 mm 5 mps 742 mmHg 91%
13:00 +5°C° 0.5 mm 5 mps 742 mmHg 91%
14:00 +5°C° 0.5 mm 5 mps 742 mmHg 90%
15:00 +5°C° 0.2 mm 5 mps 743 mmHg 90%
16:00 +3°C° 0.2 mm 5 mps 743 mmHg 90%
17:00 +4°C° 0.2 mm 4 mps 743 mmHg 90%
18:00 +4°C° 0.1 mm 4 mps 743 mmHg 92%
19:00 +3°C° 0.1 mm 4 mps 743 mmHg 93%
20:00 +3°C° 0.1 mm 4 mps 744 mmHg 95%
21:00 +2°C° 0 mm 3 mps 744 mmHg 95%
22:00 +2°C° 0 mm 3 mps 744 mmHg 95%
23:00 +2°C° 0 mm 3 mps 744 mmHg 96%

17 April, Saturday

Time Temperature Precipitation Wind Pressure Humidity
00:00 +2°C° 0 mm 3 mps 744 mmHg 95%
01:00 +3°C° 0 mm 2 mps 745 mmHg 95%
02:00 +3°C° 0 mm 2 mps 745 mmHg 95%
03:00 +3°C° 0 mm 2 mps 745 mmHg 95%
04:00 +3°C° 0 mm 2 mps 745 mmHg 95%
05:00 +4°C° 0 mm 1 mps 746 mmHg 95%
06:00 +4°C° 0 mm 1 mps 746 mmHg 94%
07:00 +4°C° 0 mm 1 mps 747 mmHg 94%
08:00 +4°C° 0 mm 1 mps 747 mmHg 94%
09:00 +5°C° 0 mm 1 mps 748 mmHg 91%
10:00 +5°C° 0 mm 2 mps 748 mmHg 89%
11:00 +5°C° 0 mm 2 mps 749 mmHg 86%
12:00 +5°C° 0 mm 2 mps 749 mmHg 85%
13:00 +6°C° 0 mm 2 mps 749 mmHg 83%
14:00 +7°C° 0 mm 1 mps 749 mmHg 82%
15:00 +6°C° 0 mm 2 mps 750 mmHg 80%
16:00 +7°C° 0 mm 2 mps 750 mmHg 79%
17:00 +7°C° 0 mm 2 mps 750 mmHg 77%
18:00 +6°C° 0 mm 2 mps 750 mmHg 80%
19:00 +6°C° 0 mm 2 mps 751 mmHg 82%
20:00 +7°C° 0 mm 1 mps 751 mmHg 84%
21:00 +6°C° 0 mm 1 mps 751 mmHg 85%
22:00 +6°C° 0 mm 1 mps 751 mmHg 86%
23:00 +5°C° 0 mm 1 mps 751 mmHg 87%
Show more